Location: Ash Observatory
(39.7321°N, 75.2004°W)
Time: 17:35:20
(UTC-04:00)

ISS - Pass Details

Date: 27 May 2019
Orbit: 408 x 418 km, 51.6° (Epoch: 18 June)

Event Time Altitude Azimuth Distance (km) Brightness Sun altitude
Rises 20:19:24 0° 287° (WNW) 2,344 2.3 -0.9°
Reaches altitude 10° 20:22:21 10° 317° (NW) 1,487 0.7 -1.4°
Maximum altitude 20:24:03 13° 347° (NNW) 1,307 -0.6 -1.7°
Drops below altitude 10° 20:25:46 10° 18° (NNE) 1,492 -0.8 -2.0°
Enters shadow 20:33:00 -11° 63° (ENE) 3,929 0.9 -3.2°
Exits shadow 21:05:21 -74° 107° (ESE) 12,706 3.6 -8.3°
